Tracking 18980 objects as of 23-Feb-2018
HD Live streaming from Space Station
objects crossing your sky now

NOAA 16 DEB

Track NOAA 16 DEB now!
10-day predictions


NORAD ID: 41293
Int'l Code: 2000-055GV
Perigee: 852.5 km
Apogee: 907.8 km
Inclination: 98.9 °
Period: 102.4 minutes
Semi major axis: 7251 km
RCS: Unknown
Launch date: September 21, 2000
Source: United States (US)
Launch site: AIR FORCE WESTERN TEST RANGE (AFWTR)

Note: This is SATELLITE DEBRIS
aabbcc
Your satellite tracking list
Your tracking list is empty




NASA's NSSDC Master Catalog

Two Line Element Set (TLE):
1 41293U 00055GV  18053.40682095  .00001186  00000-0  74475-3 0  9996
2 41293  98.9301 122.5243 0038152 173.6178 186.5483 14.06021733111276
Source of the keplerian elements: AFSPC